This is the latest recevied weather packets stored in our database for station/object IZ3LCH-13. If no packets are shown the sender has not sent any weather packets the latest 10 day(s).
| Time | Temp. | Humidity | Pressure | Rain* | Wind** | Luminosity | Snow |
|---|---|---|---|---|---|---|---|
| 1777793103 | 18.33° C | 58% | 1019.3 hPa | 0 mm | - | - | - |
| 1777792803 | 17.78° C | 59% | 1019.2 hPa | 0 mm | - | - | - |
| 1777792503 | 17.78° C | 59% | 1019.1 hPa | 0 mm | - | - | - |
| 1777792203 | 17.78° C | 59% | 1019.1 hPa | 0 mm | - | - | - |
| 1777791903 | 17.22° C | 60% | 1019.2 hPa | 0 mm | - | - | - |
| 1777791603 | 17.22° C | 61% | 1019.2 hPa | 0 mm | - | - | - |
| 1777791303 | 16.67° C | 62% | 1019.1 hPa | 0 mm | - | - | - |
| 1777791003 | 16.67° C | 62% | 1018.9 hPa | 0 mm | - | - | - |
| 1777790703 | 16.11° C | 63% | 1019.1 hPa | 0 mm | - | - | - |
| 1777790403 | 15.56° C | 63% | 1019.1 hPa | 0 mm | - | - | - |
| 1777790103 | 15.56° C | 64% | 1019.1 hPa | 0 mm | - | - | - |
| 1777789803 | 15° C | 65% | 1019.3 hPa | 0 mm | - | - | - |
| 1777789503 | 14.44° C | 65% | 1018.9 hPa | 0 mm | - | - | - |
| 1777789203 | 14.44° C | 65% | 1019 hPa | 0 mm | - | - | - |
| 1777788903 | 14.44° C | 66% | 1019 hPa | 0 mm | - | - | - |
| 1777788603 | 13.89° C | 66% | 1018.9 hPa | 0 mm | - | - | - |
| 1777788303 | 13.89° C | 66% | 1019.1 hPa | 0 mm | - | - | - |
| 1777788003 | 13.89° C | 66% | 1018.8 hPa | 0 mm | - | - | - |
| 1777787703 | 13.33° C | 67% | 1018.9 hPa | 0 mm | - | - | - |
| 1777787403 | 13.33° C | 67% | 1019.3 hPa | 0 mm | - | - | - |
| 1777787104 | 12.78° C | 67% | 1019 hPa | 0 mm | - | - | - |
| 1777786803 | 12.78° C | 68% | 1018.9 hPa | 0 mm | - | - | - |
| 1777786503 | 12.78° C | 68% | 1019.2 hPa | 0 mm | - | - | - |
| 1777786203 | 12.78° C | 68% | 1018.9 hPa | 0 mm | - | - | - |
| 1777785903 | 12.22° C | 68% | 1018.7 hPa | 0 mm | - | - | - |
* Rain latest hour (hover to see other rain measurements)
** Current wind speed in m/s (hover to see current wind gust speed)